,,,PA_Meas_PMT16A,,PR_Meas_QMR101_102,,RH_Meas_QMH101,,SR_Meas_QMS101,,TA_Meas_QMH101,,GenWind,,GenWind,
date,time,status,PA,status,PR,status,RH,status,SR,status,TA,status,DirAvg,status,SpdAvg,
2011-02-22, 00:00:04,VALID,1009.63,VALID,0,VALID,104,VALID,0,VALID,23.6568,VALID,293,VALID,0,
2011-02-22, 00:01:04,VALID,1009.61,VALID,0,VALID,104,VALID,0,VALID,23.6356,VALID,293,VALID,0,
2011-02-22, 00:02:04,VALID,1009.59,VALID,0,VALID,104,VALID,0,VALID,23.6568,VALID,293,VALID,0,
2011-02-22, 00:03:04,VALID,1009.56,VALID,0,VALID,104,VALID,0,VALID,23.6568,VALID,293,VALID,0,
2011-02-22, 00:04:04,VALID,1009.59,VALID,0,VALID,104,VALID,0,VALID,23.6373,VALID,293,VALID,0,
2011-02-22, 00:05:04,VALID,1009.56,VALID,0,VALID,104,VALID,0,VALID,23.6356,VALID,293,VALID,0,
2011-02-22, 00:06:04,VALID,1009.56,VALID,0,VALID,104,VALID,0,VALID,23.6356,VALID,293,VALID,0,
2011-02-22, 00:07:04,VALID,1009.55,VALID,0,VALID,104,VALID,0,VALID,23.6356,VALID,293,VALID,0,
2011-02-22, 00:08:04,VALID,1009.5,VALID,0,VALID,104,VALID,0,VALID,23.6161,VALID,293,VALID,0,
2011-02-22, 00:09:04,VALID,1009.49,VALID,0,VALID,104,VALID,0,VALID,23.6161,VALID,293,VALID,0,
2011-02-22, 00:10:04,VALID,1009.44,VALID,0,VALID,104,VALID,0,VALID,23.6161,VALID,293,VALID,0,
2011-02-22, 00:11:04,VALID,1009.43,VALID,0,VALID,104,VALID,0,VALID,23.6161,VALID,293,VALID,0,
2011-02-22, 00:12:04,VALID,1009.42,VALID,0,VALID,104,VALID,0,VALID,23.5966,VALID,293,VALID,0,
2011-02-22, 00:13:04,VALID,1009.4,VALID,0,VALID,104,VALID,0,VALID,23.6161,VALID,293,VALID,0,
2011-02-22, 00:14:04,VALID,1009.4,VALID,0,VALID,104,VALID,0,VALID,23.6161,VALID,293,VALID,0,
2011-02-22, 00:15:04,VALID,1009.39,VALID,0,VALID,104,VALID,0.105969,VALID,23.6143,VALID,293,VALID,0,
2011-02-22, 00:16:04,VALID,1009.38,VALID,0,VALID,104,VALID,0,VALID,23.6143,VALID,293,VALID,0,
2011-02-22, 00:17:04,VALID,1009.36,VALID,0,VALID,104,VALID,0,VALID,23.6356,VALID,293,VALID,0,
2011-02-22, 00:18:04,VALID,1009.36,VALID,0,VALID,104,VALID,0.105969,VALID,23.6143,VALID,293,VALID,0,
2011-02-22, 00:19:04,VALID,1009.34,VALID,0,VALID,104,VALID,0.105969,VALID,23.6143,VALID,293,VALID,0,
2011-02-22, 00:20:04,VALID,1009.34,VALID,0,VALID,104,VALID,0,VALID,23.6143,VALID,293,VALID,0,
2011-02-22, 00:21:04,VALID,1009.35,VALID,0,VALID,104,VALID,0,VALID,23.6356,VALID,293,VALID,0,
2011-02-22, 00:22:04,VALID,1009.31,VALID,0,VALID,104,VALID,0.105969,VALID,23.6338,VALID,293,VALID,0,
2011-02-22, 00:23:04,VALID,1009.28,VALID,0,VALID,104,VALID,0,VALID,23.655,VALID,293,VALID,0,
2011-02-22, 00:24:04,VALID,1009.28,VALID,0,VALID,104,VALID,0.105969,VALID,23.6745,VALID,293,VALID,0,
2011-02-22, 00:25:04,VALID,1009.27,VALID,0,VALID,104,VALID,0,VALID,23.6532,VALID,293,VALID,0,
2011-02-22, 00:26:04,VALID,1009.27,VALID,0,VALID,104,VALID,0,VALID,23.6745,VALID,293,VALID,0,
2011-02-22, 00:27:04,VALID,1009.26,VALID,0,VALID,104,VALID,0,VALID,23.6338,VALID,293,VALID,0,
2011-02-22, 00:28:04,VALID,1009.24,VALID,0,VALID,104,VALID,0,VALID,23.6143,VALID,293,VALID,0,
2011-02-22, 00:29:04,VALID,1009.26,VALID,0,VALID,104,VALID,0,VALID,23.6338,VALID,293,VALID,0,
2011-02-22, 00:30:04,VALID,1009.25,VALID,0,VALID,104,VALID,0,VALID,23.6143,VALID,293,VALID,0,
2011-02-22, 00:31:04,VALID,1009.23,VALID,0,VALID,104,VALID,0,VALID,23.6143,VALID,293,VALID,0,
2011-02-22, 00:32:04,VALID,1009.2,VALID,0,VALID,104,VALID,0.105969,VALID,23.5948,VALID,293,VALID,0,
2011-02-22, 00:33:04,VALID,1009.19,VALID,0,VALID,104,VALID,0,VALID,23.5948,VALID,293,VALID,0,
2011-02-22, 00:34:04,VALID,1009.18,VALID,0,VALID,104,VALID,0,VALID,23.5948,VALID,293,VALID,0,
2011-02-22, 00:35:04,VALID,1009.14,VALID,0,VALID,104,VALID,0,VALID,23.6161,VALID,293,VALID,0,
2011-02-22, 00:36:04,VALID,1009.13,VALID,0,VALID,104,VALID,0,VALID,23.6161,VALID,293,VALID,0,
2011-02-22, 00:37:04,VALID,1009.15,VALID,0,VALID,104,VALID,0,VALID,23.5753,VALID,293,VALID,0,
2011-02-22, 00:38:04,VALID,1009.15,VALID,0,VALID,104,VALID,0,VALID,23.5771,VALID,293,VALID,0,
2011-02-22, 00:39:04,VALID,1009.14,VALID,0,VALID,104,VALID,0,VALID,23.5966,VALID,293,VALID,0,
2011-02-22, 00:40:04,VALID,1009.12,VALID,0,VALID,104,VALID,0,VALID,23.5558,VALID,293,VALID,0,
2011-02-22, 00:41:04,VALID,1009.11,VALID,0,VALID,104,VALID,0,VALID,23.5771,VALID,293,VALID,0,
2011-02-22, 00:42:04,VALID,1009.1,VALID,0,VALID,104,VALID,0,VALID,23.5576,VALID,293,VALID,0,
2011-02-22, 00:43:04,VALID,1009.08,VALID,0,VALID,104,VALID,0,VALID,23.5151,VALID,293,VALID,0,
2011-02-22, 00:44:04,VALID,1009.09,VALID,0,VALID,104,VALID,0.105969,VALID,23.5363,VALID,293,VALID,0,
2011-02-22, 00:45:04,VALID,1009.09,VALID,0,VALID,104,VALID,0.105969,VALID,23.5169,VALID,293,VALID,0,
2011-02-22, 00:46:04,VALID,1009.06,VALID,0,VALID,104,VALID,0.105969,VALID,23.5363,VALID,293,VALID,0,
2011-02-22, 00:47:04,VALID,1009.07,VALID,0,VALID,104,VALID,0,VALID,23.5381,VALID,293,VALID,0,
2011-02-22, 00:48:04,VALID,1009.06,VALID,0,VALID,104,VALID,0,VALID,23.5169,VALID,293,VALID,0,
2011-02-22, 00:49:04,VALID,1009.03,VALID,0,VALID,104,VALID,0,VALID,23.5186,VALID,293,VALID,0,
2011-02-22, 00:50:04,VALID,1009.05,VALID,0,VALID,104,VALID,0,VALID,23.4992,VALID,293,VALID,0,
2011-02-22, 00:51:04,VALID,1009.06,VALID,0,VALID,104,VALID,0,VALID,23.4779,VALID,293,VALID,0,
2011-02-22, 00:52:04,VALID,1009.03,VALID,0,VALID,104,VALID,0,VALID,23.4797,VALID,293,VALID,0,
2011-02-22, 00:53:04,VALID,1009.01,VALID,0,VALID,104,VALID,0,VALID,23.4779,VALID,293,VALID,0,
2011-02-22, 00:54:04,VALID,1009,VALID,0,VALID,104,VALID,0,VALID,23.4797,VALID,293,VALID,0,
2011-02-22, 00:55:04,VALID,1008.99,VALID,0,VALID,104,VALID,0,VALID,23.4992,VALID,293,VALID,0,
2011-02-22, 00:56:04,VALID,1008.99,VALID,0,VALID,104,VALID,0,VALID,23.4779,VALID,293,VALID,0,
2011-02-22, 00:57:04,VALID,1008.99,VALID,0,VALID,104,VALID,0,VALID,23.4992,VALID,293,VALID,0,
2011-02-22, 00:58:04,VALID,1008.97,VALID,0,VALID,104,VALID,0,VALID,23.4584,VALID,293,VALID,0,
2011-02-22, 00:59:04,VALID,1008.97,VALID,0,VALID,104,VALID,0,VALID,23.4797,VALID,293,VALID,0,
2011-02-22, 01:00:04,VALID,1008.92,VALID,0,VALID,104,VALID,0,VALID,23.4389,VALID,293,VALID,0,
2011-02-22, 01:01:04,VALID,1008.88,VALID,0,VALID,104,VALID,0,VALID,23.4407,VALID,293,VALID,0,
2011-02-22, 01:02:04,VALID,1008.87,VALID,0,VALID,104,VALID,0,VALID,23.4212,VALID,293,VALID,0,
2011-02-22, 01:03:04,VALID,1008.84,VALID,0,VALID,104,VALID,0,VALID,23.4017,VALID,293,VALID,0,
2011-02-22, 01:04:04,VALID,1008.8,VALID,0,VALID,104,VALID,0,VALID,23.4017,VALID,293,VALID,0,
2011-02-22, 01:05:04,VALID,1008.81,VALID,0,VALID,104,VALID,0.105969,VALID,23.4017,VALID,293,VALID,0,
2011-02-22, 01:06:04,VALID,1008.78,VALID,0,VALID,104,VALID,0,VALID,23.361,VALID,293,VALID,0,
2011-02-22, 01:07:04,VALID,1008.76,VALID,0,VALID,104,VALID,0,VALID,23.3823,VALID,293,VALID,0,
2011-02-22, 01:08:04,VALID,1008.75,VALID,0,VALID,104,VALID,0,VALID,23.361,VALID,293,VALID,0,
2011-02-22, 01:09:04,VALID,1008.76,VALID,0,VALID,104,VALID,0,VALID,23.322,VALID,293,VALID,0,
2011-02-22, 01:10:04,VALID,1008.75,VALID,0,VALID,104,VALID,0,VALID,23.322,VALID,293,VALID,0,
2011-02-22, 01:11:04,VALID,1008.73,VALID,0,VALID,104,VALID,0.105969,VALID,23.3026,VALID,293,VALID,0,
2011-02-22, 01:12:04,VALID,1008.7,VALID,0,VALID,104,VALID,0,VALID,23.2831,VALID,293,VALID,0,
2011-02-22, 01:13:04,VALID,1008.68,VALID,0,VALID,104,VALID,0,VALID,23.2848,VALID,293,VALID,0,
2011-02-22, 01:14:04,VALID,1008.66,VALID,0,VALID,104,VALID,0.105969,VALID,23.2636,VALID,293,VALID,0,
2011-02-22, 01:15:04,VALID,1008.63,VALID,0,VALID,104,VALID,0,VALID,23.2441,VALID,293,VALID,0,
2011-02-22, 01:16:04,VALID,1008.61,VALID,0,VALID,104,VALID,0,VALID,23.2441,VALID,293,VALID,0,
2011-02-22, 01:17:04,VALID,1008.62,VALID,0,VALID,104,VALID,0,VALID,23.2246,VALID,293,VALID,0,
2011-02-22, 01:18:04,VALID,1008.61,VALID,0,VALID,104,VALID,0,VALID,23.2246,VALID,293,VALID,0,
2011-02-22, 01:19:04,VALID,1008.59,VALID,0,VALID,104,VALID,0,VALID,23.2459,VALID,293,VALID,0,
2011-02-22, 01:20:04,VALID,1008.58,VALID,0,VALID,104,VALID,0,VALID,23.2264,VALID,293,VALID,0,
2011-02-22, 01:21:04,VALID,1008.57,VALID,0,VALID,104,VALID,0,VALID,23.2051,VALID,293,VALID,0,
2011-02-22, 01:22:04,VALID,1008.57,VALID,0,VALID,104,VALID,0,VALID,23.2246,VALID,293,VALID,0,
2011-02-22, 01:23:04,VALID,1008.54,VALID,0,VALID,104,VALID,0,VALID,23.2459,VALID,293,VALID,0,
2011-02-22, 01:24:04,VALID,1008.55,VALID,0,VALID,104,VALID,0,VALID,23.2264,VALID,293,VALID,0,
2011-02-22, 01:25:04,VALID,1008.5,VALID,0,VALID,104,VALID,0,VALID,23.2069,VALID,293,VALID,0,
2011-02-22, 01:26:04,VALID,1008.5,VALID,0,VALID,104,VALID,0,VALID,23.1662,VALID,293,VALID,0,
2011-02-22, 01:27:04,VALID,1008.47,VALID,0,VALID,104,VALID,0,VALID,23.1679,VALID,293,VALID,0,
2011-02-22, 01:28:04,VALID,1008.47,VALID,0,VALID,104,VALID,0,VALID,23.1467,VALID,293,VALID,0,
2011-02-22, 01:29:04,VALID,1008.47,VALID,0,VALID,104,VALID,0,VALID,23.1467,VALID,293,VALID,0,
2011-02-22, 01:30:04,VALID,1008.43,VALID,0,VALID,104,VALID,0,VALID,23.1485,VALID,293,VALID,0,
2011-02-22, 01:31:04,VALID,1008.47,VALID,0,VALID,104,VALID,0,VALID,23.1485,VALID,293,VALID,0,
2011-02-22, 01:32:04,VALID,1008.43,VALID,0,VALID,104,VALID,0,VALID,23.1485,VALID,293,VALID,0,
2011-02-22, 01:33:04,VALID,1008.42,VALID,0,VALID,104,VALID,0,VALID,23.129,VALID,293,VALID,0,
2011-02-22, 01:34:04,VALID,1008.41,VALID,0,VALID,104,VALID,0,VALID,23.1095,VALID,293,VALID,0,
2011-02-22, 01:35:04,VALID,1008.41,VALID,0,VALID,104,VALID,0,VALID,23.09,VALID,293,VALID,0,
2011-02-22, 01:36:05,VALID,1008.42,VALID,0,VALID,104,VALID,0,VALID,23.09,VALID,293,VALID,0,
2011-02-22, 01:37:05,VALID,1008.42,VALID,0,VALID,104,VALID,0,VALID,23.0705,VALID,293,VALID,0,
2011-02-22, 01:38:05,VALID,1008.38,VALID,0,VALID,104,VALID,0,VALID,23.09,VALID,293,VALID,0,
2011-02-22, 01:39:05,VALID,1008.37,VALID,0,VALID,104,VALID,0,VALID,23.0688,VALID,293,VALID,0,
2011-02-22, 01:40:05,VALID,1008.39,VALID,0,VALID,104,VALID,0,VALID,23.09,VALID,293,VALID,0,
2011-02-22, 01:41:05,VALID,1008.38,VALID,0,VALID,104,VALID,0,VALID,23.0883,VALID,293,VALID,0,
2011-02-22, 01:42:05,VALID,1008.38,VALID,0,VALID,104,VALID,0,VALID,23.0688,VALID,293,VALID,0,
2011-02-22, 01:43:05,VALID,1008.37,VALID,0,VALID,104,VALID,0,VALID,23.09,VALID,293,VALID,0,
2011-02-22, 01:44:05,VALID,1008.36,VALID,0,VALID,104,VALID,0,VALID,23.09,VALID,293,VALID,0,
2011-02-22, 01:45:05,VALID,1008.36,VALID,0,VALID,104,VALID,0,VALID,23.0493,VALID,293,VALID,0,
2011-02-22, 01:46:05,VALID,1008.37,VALID,0,VALID,104,VALID,0.105969,VALID,23.0493,VALID,293,VALID,0,
2011-02-22, 01:47:05,VALID,1008.38,VALID,0,VALID,104,VALID,0,VALID,23.0493,VALID,293,VALID,0,
2011-02-22, 01:48:05,VALID,1008.37,VALID,0,VALID,104,VALID,0,VALID,23.0511,VALID,293,VALID,0,
2011-02-22, 01:49:05,VALID,1008.34,VALID,0,VALID,104,VALID,0.105969,VALID,23.0103,VALID,293,VALID,0,
2011-02-22, 01:50:05,VALID,1008.37,VALID,0,VALID,104,VALID,0,VALID,23.0316,VALID,293,VALID,0,
2011-02-22, 01:51:05,VALID,1008.34,VALID,0,VALID,104,VALID,0,VALID,22.9909,VALID,293,VALID,0,
2011-02-22, 01:52:05,VALID,1008.35,VALID,0,VALID,104,VALID,0,VALID,22.9714,VALID,293,VALID,0,
2011-02-22, 01:53:05,VALID,1008.32,VALID,0,VALID,104,VALID,0.105969,VALID,22.9714,VALID,293,VALID,0,
2011-02-22, 01:54:05,VALID,1008.33,VALID,0,VALID,104,VALID,0.105969,VALID,22.9714,VALID,293,VALID,0,
2011-02-22, 01:55:05,VALID,1008.32,VALID,0,VALID,104,VALID,0,VALID,22.9731,VALID,293,VALID,0,
2011-02-22, 01:56:05,VALID,1008.3,VALID,0,VALID,104,VALID,0.105969,VALID,22.9519,VALID,293,VALID,0,
2011-02-22, 01:57:05,VALID,1008.3,VALID,0,VALID,104,VALID,0,VALID,22.9324,VALID,293,VALID,0,
2011-02-22, 01:58:05,VALID,1008.28,VALID,0,VALID,104,VALID,0,VALID,22.9324,VALID,293,VALID,0,
2011-02-22, 01:59:05,VALID,1008.25,VALID,0,VALID,104,VALID,0,VALID,22.9536,VALID,293,VALID,0,
2011-02-22, 02:00:05,VALID,1008.21,VALID,0,VALID,104,VALID,0,VALID,22.9147,VALID,293,VALID,0,
2011-02-22, 02:01:05,VALID,1008.23,VALID,0,VALID,104,VALID,0,VALID,22.8969,VALID,293,VALID,0,
2011-02-22, 02:02:05,VALID,1008.21,VALID,0,VALID,104,VALID,0,VALID,22.8562,VALID,293,VALID,0,
2011-02-22, 02:03:05,VALID,1008.19,VALID,0,VALID,104,VALID,0,VALID,22.8368,VALID,293,VALID,0,
2011-02-22, 02:04:05,VALID,1008.19,VALID,0,VALID,104,VALID,0,VALID,22.8368,VALID,293,VALID,0,
2011-02-22, 02:05:05,VALID,1008.14,VALID,0,VALID,104,VALID,0,VALID,22.8368,VALID,293,VALID,0,
2011-02-22, 02:06:05,VALID,1008.12,VALID,0,VALID,104,VALID,0,VALID,22.8368,VALID,293,VALID,0,
2011-02-22, 02:07:05,VALID,1008.12,VALID,0,VALID,104,VALID,0,VALID,22.8775,VALID,293,VALID,0,
2011-02-22, 02:08:05,VALID,1008.08,VALID,0,VALID,104,VALID,0,VALID,22.8368,VALID,293,VALID,0,
2011-02-22, 02:09:05,VALID,1008.08,VALID,0,VALID,104,VALID,0,VALID,22.8385,VALID,293,VALID,0,
2011-02-22, 02:10:05,VALID,1008.05,VALID,0,VALID,104,VALID,0,VALID,22.7978,VALID,293,VALID,0,
2011-02-22, 02:11:05,VALID,1008.07,VALID,0,VALID,104,VALID,0,VALID,22.7995,VALID,293,VALID,0,
2011-02-22, 02:12:05,VALID,1008.07,VALID,0,VALID,104,VALID,0,VALID,22.7783,VALID,293,VALID,0,
2011-02-22, 02:13:05,VALID,1008.07,VALID,0,VALID,104,VALID,0,VALID,22.819,VALID,293,VALID,0,
2011-02-22, 02:14:05,VALID,1008.08,VALID,0,VALID,104,VALID,0,VALID,22.819,VALID,293,VALID,0,
2011-02-22, 02:15:05,VALID,1008.09,VALID,0,VALID,104,VALID,0,VALID,22.8368,VALID,293,VALID,0,
2011-02-22, 02:16:05,VALID,1008.11,VALID,0,VALID,104,VALID,0,VALID,22.8368,VALID,293,VALID,0,
2011-02-22, 02:17:05,VALID,1008.11,VALID,0,VALID,104,VALID,0,VALID,22.8173,VALID,293,VALID,0,
2011-02-22, 02:18:05,VALID,1008.08,VALID,0,VALID,104,VALID,0.105969,VALID,22.7766,VALID,293,VALID,0,
2011-02-22, 02:19:05,VALID,1008.07,VALID,0,VALID,104,VALID,0,VALID,22.7978,VALID,293,VALID,0,
2011-02-22, 02:20:05,VALID,1008.04,VALID,0,VALID,104,VALID,0.105969,VALID,22.7766,VALID,293,VALID,0,
2011-02-22, 02:21:05,VALID,1008.01,VALID,0,VALID,104,VALID,0.105969,VALID,22.7376,VALID,293,VALID,0,
2011-02-22, 02:22:05,VALID,1008.01,VALID,0,VALID,104,VALID,0.105969,VALID,22.7588,VALID,293,VALID,0,
2011-02-22, 02:23:05,VALID,1008.01,VALID,0,VALID,104,VALID,0,VALID,22.7783,VALID,293,VALID,0,
2011-02-22, 02:24:05,VALID,1008,VALID,0,VALID,104,VALID,0,VALID,22.7588,VALID,293,VALID,0,
2011-02-22, 02:25:05,VALID,1008.03,VALID,0,VALID,104,VALID,0,VALID,22.7394,VALID,293,VALID,0,
2011-02-22, 02:26:05,VALID,1008.03,VALID,0,VALID,104,VALID,0.105969,VALID,22.7394,VALID,293,VALID,0,
2011-02-22, 02:27:05,VALID,1008.04,VALID,0,VALID,104,VALID,0.105969,VALID,22.6987,VALID,293,VALID,0,
2011-02-22, 02:28:05,VALID,1008.04,VALID,0,VALID,104,VALID,0.105969,VALID,22.6987,VALID,293,VALID,0,
2011-02-22, 02:29:05,VALID,1008.04,VALID,0,VALID,104,VALID,0.105969,VALID,22.7182,VALID,293,VALID,0,
2011-02-22, 02:30:05,VALID,1008.03,VALID,0,VALID,104,VALID,0.105969,VALID,22.7394,VALID,293,VALID,0,
2011-02-22, 02:31:05,VALID,1008.02,VALID,0,VALID,104,VALID,0.105969,VALID,22.6987,VALID,293,VALID,0,
2011-02-22, 02:32:05,VALID,1008.03,VALID,0,VALID,104,VALID,0.105969,VALID,22.7199,VALID,293,VALID,0,
2011-02-22, 02:33:05,VALID,1008.03,VALID,0,VALID,104,VALID,0.105969,VALID,22.6987,VALID,293,VALID,0,
2011-02-22, 02:34:05,VALID,1008.04,VALID,0,VALID,104,VALID,0,VALID,22.6792,VALID,293,VALID,0,
2011-02-22, 02:35:05,VALID,1008.05,VALID,0,VALID,104,VALID,0.105969,VALID,22.6597,VALID,293,VALID,0,
2011-02-22, 02:36:05,VALID,1008.04,VALID,0,VALID,104,VALID,0.105969,VALID,22.6809,VALID,293,VALID,0,
2011-02-22, 02:37:05,VALID,1008.06,VALID,0,VALID,104,VALID,0.105969,VALID,22.6597,VALID,293,VALID,0,
2011-02-22, 02:38:05,VALID,1008.04,VALID,0,VALID,104,VALID,0.105969,VALID,22.6597,VALID,293,VALID,0,
2011-02-22, 02:39:05,VALID,1008.04,VALID,0,VALID,104,VALID,0.105969,VALID,22.6792,VALID,293,VALID,0,
2011-02-22, 02:40:05,VALID,1008.02,VALID,0,VALID,104,VALID,0.105969,VALID,22.6987,VALID,293,VALID,0,
2011-02-22, 02:41:05,VALID,1008.03,VALID,0,VALID,104,VALID,0.105969,VALID,22.7199,VALID,293,VALID,0,
2011-02-22, 02:42:05,VALID,1008.01,VALID,0,VALID,104,VALID,0,VALID,22.7394,VALID,293,VALID,0,
2011-02-22, 02:43:05,VALID,1008,VALID,0,VALID,104,VALID,0.105969,VALID,22.7376,VALID,293,VALID,0,
2011-02-22, 02:44:05,VALID,1007.99,VALID,0,VALID,104,VALID,0.105969,VALID,22.7182,VALID,293,VALID,0,
2011-02-22, 02:45:05,VALID,1007.99,VALID,0,VALID,104,VALID,0,VALID,22.7394,VALID,293,VALID,0,
2011-02-22, 02:46:05,VALID,1007.98,VALID,0,VALID,104,VALID,0,VALID,22.7199,VALID,293,VALID,0,
2011-02-22, 02:47:05,VALID,1007.98,VALID,0,VALID,104,VALID,0,VALID,22.7199,VALID,293,VALID,0,
2011-02-22, 02:48:05,VALID,1007.98,VALID,0,VALID,104,VALID,0,VALID,22.7004,VALID,293,VALID,0,
2011-02-22, 02:49:05,VALID,1007.96,VALID,0,VALID,104,VALID,0,VALID,22.6809,VALID,293,VALID,0,
2011-02-22, 02:50:05,VALID,1007.97,VALID,0,VALID,104,VALID,0,VALID,22.7004,VALID,293,VALID,0,
2011-02-22, 02:51:05,VALID,1007.95,VALID,0,VALID,104,VALID,0,VALID,22.6809,VALID,293,VALID,0,
2011-02-22, 02:52:05,VALID,1007.95,VALID,0,VALID,104,VALID,0,VALID,22.6809,VALID,293,VALID,0,
2011-02-22, 02:53:05,VALID,1007.93,VALID,0,VALID,104,VALID,0,VALID,22.6809,VALID,293,VALID,0,
2011-02-22, 02:54:05,VALID,1007.93,VALID,0,VALID,104,VALID,0,VALID,22.6614,VALID,293,VALID,0,
2011-02-22, 02:55:05,VALID,1007.93,VALID,0,VALID,104,VALID,0,VALID,22.6826,VALID,293,VALID,0,
2011-02-22, 02:56:05,VALID,1007.94,VALID,0,VALID,104,VALID,0,VALID,22.6809,VALID,293,VALID,0,
2011-02-22, 02:57:05,VALID,1007.92,VALID,0,VALID,104,VALID,0,VALID,22.6614,VALID,293,VALID,0,
2011-02-22, 02:58:05,VALID,1007.91,VALID,0,VALID,104,VALID,0,VALID,22.6614,VALID,293,VALID,0,
2011-02-22, 02:59:05,VALID,1007.92,VALID,0,VALID,104,VALID,0,VALID,22.7021,VALID,293,VALID,0,
2011-02-22, 03:00:05,VALID,1007.91,VALID,0,VALID,104,VALID,0,VALID,22.6809,VALID,293,VALID,0,
2011-02-22, 03:01:05,VALID,1007.93,VALID,0,VALID,104,VALID,0,VALID,22.6809,VALID,293,VALID,0,
2011-02-22, 03:02:05,VALID,1007.92,VALID,0,VALID,104,VALID,0,VALID,22.7021,VALID,293,VALID,0,
2011-02-22, 03:03:05,VALID,1007.94,VALID,0,VALID,104,VALID,0,VALID,22.6809,VALID,293,VALID,0,
2011-02-22, 03:04:05,VALID,1007.92,VALID,0,VALID,104,VALID,0,VALID,22.7216,VALID,293,VALID,0,
2011-02-22, 03:05:05,VALID,1007.89,VALID,0,VALID,104,VALID,0.105969,VALID,22.7004,VALID,293,VALID,0,
2011-02-22, 03:06:05,VALID,1007.9,VALID,0,VALID,104,VALID,0,VALID,22.7199,VALID,293,VALID,0,
2011-02-22, 03:07:05,VALID,1007.86,VALID,0,VALID,104,VALID,0,VALID,22.7199,VALID,293,VALID,0,
2011-02-22, 03:08:05,VALID,1007.87,VALID,0,VALID,104,VALID,0,VALID,22.7021,VALID,293,VALID,0,
2011-02-22, 03:09:05,VALID,1007.87,VALID,0,VALID,104,VALID,0,VALID,22.6809,VALID,293,VALID,0,
2011-02-22, 03:10:05,VALID,1007.84,VALID,0,VALID,104,VALID,0,VALID,22.7004,VALID,293,VALID,0,
2011-02-22, 03:11:05,VALID,1007.85,VALID,0,VALID,104,VALID,0,VALID,22.7199,VALID,293,VALID,0,
2011-02-22, 03:12:05,VALID,1007.88,VALID,0,VALID,104,VALID,0,VALID,22.7199,VALID,293,VALID,0,
2011-02-22, 03:13:05,VALID,1007.86,VALID,0,VALID,104,VALID,0,VALID,22.7199,VALID,293,VALID,0,
2011-02-22, 03:14:05,VALID,1007.86,VALID,0,VALID,104,VALID,0,VALID,22.7199,VALID,293,VALID,0,
2011-02-22, 03:15:05,VALID,1007.87,VALID,0,VALID,104,VALID,0,VALID,22.7199,VALID,293,VALID,0,
2011-02-22, 03:16:05,VALID,1007.85,VALID,0,VALID,104,VALID,0,VALID,22.7004,VALID,293,VALID,0,
2011-02-22, 03:17:05,VALID,1007.85,VALID,0,VALID,104,VALID,0,VALID,22.7216,VALID,293,VALID,0,
2011-02-22, 03:18:05,VALID,1007.85,VALID,0,VALID,104,VALID,0,VALID,22.7004,VALID,293,VALID,0,
2011-02-22, 03:19:05,VALID,1007.85,VALID,0,VALID,104,VALID,0,VALID,22.6614,VALID,293,VALID,0,
2011-02-22, 03:20:05,VALID,1007.85,VALID,0,VALID,104,VALID,0,VALID,22.6225,VALID,293,VALID,0,
2011-02-22, 03:21:05,VALID,1007.86,VALID,0,VALID,104,VALID,0,VALID,22.6225,VALID,293,VALID,0,
2011-02-22, 03:22:05,VALID,1007.85,VALID,0,VALID,104,VALID,0,VALID,22.6225,VALID,293,VALID,0,
2011-02-22, 03:23:05,VALID,1007.88,VALID,0,VALID,104,VALID,0,VALID,22.603,VALID,293,VALID,0,
2011-02-22, 03:24:05,VALID,1007.84,VALID,0,VALID,104,VALID,0,VALID,22.6225,VALID,293,VALID,0,
2011-02-22, 03:25:05,VALID,1007.84,VALID,0,VALID,104,VALID,0,VALID,22.6242,VALID,293,VALID,0,
2011-02-22, 03:26:05,VALID,1007.87,VALID,0,VALID,104,VALID,0,VALID,22.603,VALID,293,VALID,0,
2011-02-22, 03:27:05,VALID,1007.88,VALID,0,VALID,104,VALID,0,VALID,22.6242,VALID,293,VALID,0,
2011-02-22, 03:28:05,VALID,1007.88,VALID,0,VALID,104,VALID,0,VALID,22.6242,VALID,293,VALID,0,
2011-02-22, 03:29:05,VALID,1007.89,VALID,0,VALID,104,VALID,0,VALID,22.6047,VALID,293,VALID,0,
2011-02-22, 03:30:05,VALID,1007.87,VALID,0,VALID,104,VALID,0,VALID,22.5818,VALID,293,VALID,0,
2011-02-22, 03:31:05,VALID,1007.86,VALID,0,VALID,104,VALID,0,VALID,22.603,VALID,293,VALID,0,
2011-02-22, 03:32:05,VALID,1007.87,VALID,0,VALID,104,VALID,0.105969,VALID,22.5835,VALID,293,VALID,0,
2011-02-22, 03:33:05,VALID,1007.86,VALID,0,VALID,104,VALID,0.105969,VALID,22.5623,VALID,293,VALID,0,
2011-02-22, 03:34:05,VALID,1007.85,VALID,0,VALID,104,VALID,0,VALID,22.5623,VALID,293,VALID,0,
2011-02-22, 03:35:05,VALID,1007.88,VALID,0,VALID,104,VALID,0,VALID,22.5446,VALID,293,VALID,0,
2011-02-22, 03:36:05,VALID,1007.9,VALID,0,VALID,104,VALID,0,VALID,22.5251,VALID,293,VALID,0,
2011-02-22, 03:37:05,VALID,1007.89,VALID,0,VALID,104,VALID,0.105969,VALID,22.5234,VALID,293,VALID,0,
2011-02-22, 03:38:05,VALID,1007.91,VALID,0,VALID,104,VALID,0.105969,VALID,22.5234,VALID,293,VALID,0,
2011-02-22, 03:39:05,VALID,1007.92,VALID,0,VALID,104,VALID,0.105969,VALID,22.5429,VALID,293,VALID,0,
2011-02-22, 03:40:05,VALID,1007.9,VALID,0,VALID,104,VALID,0.105969,VALID,22.5835,VALID,293,VALID,0,
2011-02-22, 03:41:05,VALID,1007.91,VALID,0,VALID,104,VALID,0,VALID,22.642,VALID,293,VALID,0,
2011-02-22, 03:42:05,VALID,1007.89,VALID,0,VALID,104,VALID,0.105969,VALID,22.6402,VALID,293,VALID,0,
2011-02-22, 03:43:05,VALID,1007.89,VALID,0,VALID,104,VALID,0,VALID,22.6597,VALID,293,VALID,0,
2011-02-22, 03:44:05,VALID,1007.88,VALID,0,VALID,104,VALID,0,VALID,22.6597,VALID,293,VALID,0,
2011-02-22, 03:45:05,VALID,1007.88,VALID,0,VALID,104,VALID,0,VALID,22.7021,VALID,293,VALID,0,
2011-02-22, 03:46:05,VALID,1007.88,VALID,0,VALID,104,VALID,0,VALID,22.6242,VALID,293,VALID,0,
2011-02-22, 03:47:05,VALID,1007.88,VALID,0,VALID,104,VALID,0,VALID,22.5852,VALID,293,VALID,0,
2011-02-22, 03:48:05,VALID,1007.87,VALID,0,VALID,104,VALID,0,VALID,22.5251,VALID,293,VALID,0,
2011-02-22, 03:49:05,VALID,1007.89,VALID,0,VALID,104,VALID,0,VALID,22.4861,VALID,293,VALID,0,
2011-02-22, 03:50:05,VALID,1007.91,VALID,0,VALID,104,VALID,0,VALID,22.5268,VALID,293,VALID,0,
2011-02-22, 03:51:05,VALID,1007.91,VALID,0,VALID,104,VALID,0,VALID,22.5251,VALID,293,VALID,0,
2011-02-22, 03:52:05,VALID,1007.95,VALID,0,VALID,104,VALID,0,VALID,22.5658,VALID,293,VALID,0,
2011-02-22, 03:53:05,VALID,1007.94,VALID,0,VALID,104,VALID,0,VALID,22.5251,VALID,293,VALID,0,
2011-02-22, 03:54:05,VALID,1007.94,VALID,0,VALID,104,VALID,0,VALID,22.5251,VALID,293,VALID,0,
2011-02-22, 03:55:05,VALID,1007.97,VALID,0,VALID,104,VALID,0,VALID,22.5463,VALID,293,VALID,0,
2011-02-22, 03:56:05,VALID,1007.95,VALID,0,VALID,104,VALID,0,VALID,22.5463,VALID,293,VALID,0,
2011-02-22, 03:57:05,VALID,1007.99,VALID,0,VALID,104,VALID,0,VALID,22.5463,VALID,293,VALID,0,
2011-02-22, 03:58:05,VALID,1008,VALID,0,VALID,104,VALID,0,VALID,22.5251,VALID,293,VALID,0,
2011-02-22, 03:59:05,VALID,1008.02,VALID,0,VALID,104,VALID,0,VALID,22.5463,VALID,293,VALID,0,
2011-02-22, 04:00:05,VALID,1008.05,VALID,0,VALID,104,VALID,0,VALID,22.5446,VALID,293,VALID,0,
2011-02-22, 04:01:05,VALID,1008.06,VALID,0,VALID,104,VALID,0,VALID,22.5251,VALID,293,VALID,0,
2011-02-22, 04:02:05,VALID,1008.07,VALID,0,VALID,104,VALID,0,VALID,22.5056,VALID,293,VALID,0,
2011-02-22, 04:03:05,VALID,1008.04,VALID,0,VALID,104,VALID,0,VALID,22.5268,VALID,293,VALID,0,
2011-02-22, 04:04:05,VALID,1008.06,VALID,0,VALID,104,VALID,0,VALID,22.5268,VALID,293,VALID,0,
2011-02-22, 04:05:05,VALID,1008.04,VALID,0,VALID,104,VALID,0,VALID,22.5073,VALID,293,VALID,0,
2011-02-22, 04:06:05,VALID,1008.06,VALID,0,VALID,104,VALID,0,VALID,22.5073,VALID,293,VALID,0,